Regional Weather Roundup
Issued by NWS Little Rock, AR

Home | Current Version | Previous Version | Text Only | Print | Product List | Glossary On
Versions: 1 2 3 4 5 6 7 8 9 10 11 12 13 14 15 16 17 18 19 20 21 22 23 24 25 26 27 28 29 30 31 32 33 34 35 36 37 38 39 40 41 42 43 44 45 46 47 48 49 50
000
ASUS44 KLZK 242305
RWRLZK

WEATHER ROUNDUP FOR ARKANSAS
NATIONAL WEATHER SERVICE LITTLE ROCK AR
600 PM CDT THU JUL 24 2014

NOTE: "FAIR" INDICATES FEW OR NO CLOUDS BELOW 12,000 FEET WITH NO
SIGNIFICANT WEATHER AND/OR OBSTRUCTIONS TO VISIBILITY.

ARZ001-003-010-029-250000-
NORTHWEST ARKANSAS

CITY           SKY/WX    TMP DP  RH WIND       PRES   REMARKS
FAYETTEVILLE   SUNNY     83  67  58 CALM      30.04F HX  85
FORT SMITH     MOSUNNY   86  70  58 VRB5      30.00F HX  90
HARRISON       SUNNY     82  62  50 SE7       30.05F
BENTONVILLE    MOSUNNY   86  66  51 SW7       30.05F HX  88
ROGERS         SUNNY     86  63  45 SE8       30.05F HX  87
SILOAM SPGS    SUNNY     84  64  51 SW9       30.04F HX  86
HIGHFILL       SUNNY     85  68  56 S7        30.03F HX  88
SPRINGDALE     MOSUNNY   86  66  51 S7        30.05F HX  88
$$

ARZ004-005-016-250000-
NORTH CENTRAL ARKANSAS

CITY           SKY/WX    TMP DP  RH WIND       PRES   REMARKS
BATESVILLE     SUNNY     82  55  39 N5        30.02F
FLIPPIN        SUNNY     82  61  47 E3        30.04F
MTN HOME       SUNNY     80  58  46 SE5       30.03F
$$

ARZ040-041-250000-
WEST CENTRAL ARKANSAS

CITY           SKY/WX    TMP DP  RH WIND       PRES   REMARKS
MENA           PTSUNNY   88  73  62 CALM      30.03F HX  96
MOUNT IDA      MOSUNNY   84  72  67 CALM      30.01F HX  89
$$

ARZ009-017-025-026-028-250000-
NORTHEAST ARKANSAS

CITY           SKY/WX    TMP DP  RH WIND       PRES   REMARKS
JONESBORO      SUNNY     80  59  48 NE10      30.02F
NEWPORT        SUNNY     80  64  58 E9        30.03F
WALNUT RIDGE   SUNNY     81  61  50 NE7       30.01F
BLYTHEVILLE    PTSUNNY   79  63  57 NE9       30.02S
$$

ARZ022-023-033-042-044-250000-
CENTRAL ARKANSAS

CITY           SKY/WX    TMP DP  RH WIND       PRES   REMARKS
LITTLE ROCK    PTSUNNY   83  65  54 SE6       30.01F HX  85
N LITTLE ROCK  PTSUNNY   82  71  69 N3        30.01F HX  86
JACKSONVILLE   SUNNY     84  70  61 NE2       30.01F HX  88
SEARCY         SUNNY     83  65  54 NE9       30.02F HX  85
HOT SPRINGS    SUNNY     85  71  63 S3        30.01F HX  90
RUSSELLVILLE   SUNNY     82  73  74 CALM      30.01F HX  87
CLINTON        PTSUNNY   84  70  61 E3        30.02F HX  88
$$

ARZ036-250000-
EAST ARKANSAS

CITY           SKY/WX    TMP DP  RH WIND       PRES   REMARKS
WEST MEMPHIS   SUNNY     81  58  45 N12       30.00F
$$

ARZ050-053-066-070-073-250000-
SOUTHWEST ARKANSAS

CITY           SKY/WX    TMP DP  RH WIND       PRES   REMARKS
ARKADELPHIA    FAIR      84  73  69 CALM      30.00F HX  90
CAMDEN         MOSUNNY   86  70  58 N6        29.99F HX  90
TEXARKANA      MOSUNNY   82  71  69 VRB3      30.00F HX  86
EL DORADO      MOSUNNY   87  73  62 N9        29.98F HX  94
DE QUEEN       SUNNY     87  72  60 VRB3      29.98F HX  93
$$

ARZ056-057-069-250000-
SOUTHEAST ARKANSAS

CITY           SKY/WX    TMP DP  RH WIND       PRES   REMARKS
PINE BLUFF     MOSUNNY   79  68  69 N5        30.02S
STUTTGART      SUNNY     81  66  61 N8        30.03S
MONTICELLO     PTSUNNY   84  71  65 NE8       30.00S HX  89

$$





USA.gov is the U.S. government's official web portal to all federal, state and local government web resources and services.